OpenBCM V1.08-5-g2f4a (Linux)

Packet Radio Mailbox

IZ3LSV

[San Dona' di P. JN]

 Login: GUEST





  
I0OJJ  > KEPS     18.04.25 02:33l 355 Lines 16924 Bytes #29 (0) @ AMSAT
BID : ORB25108.1
Read: GUEST
Subj: 2Line Orbital Elements 25108.AMSAT
Path: IZ3LSV<I0OJJ
Sent: 250418/0025z @:I0OJJ.ITA.EU [Rome] obcm1.08-6-g5b69
From: I0OJJ @ I0OJJ.ITA.EU (Gustavo)
To:   KEPS @ AMSAT
X-Info: This message was generated automatically


QST de W1STR

AMSAT Orbital Elements for Amateur Satellites in TLE Format
From Orbital Analysis Office
New England Sci-Tech STEM Education Center
Natick, MA April 18, 2025
To all radio amateurs


These element sets describe the orbits of various satellites 
in use by the amateur radio community. For details see:
www.amsat.org/keplerian-elements-formats/

A daily update of element sets is available at:
www.amsat.org/tle/daily-bulletin.txt
or without bulletin text:
www.amsat.org/tle/dailytle.txt


AO-07
1 07530U 74089B   25107.90165199 -.00000047  00000-0 -69843-6 0  9997
2 07530 101.9951 111.6023 0011978 221.2569 211.5287 12.53688286307465
UO-11
1 14781U 84021B   25107.85924046  .00003305  00000-0  35535-3 0  9994
2 14781  97.7504  75.2937 0008761 141.0772 219.1078 14.89175328214791
AO-27
1 22825U 93061C   25107.76930633  .00000251  00000-0  11294-3 0  9998
2 22825  98.7411 169.0499 0007252 266.9020  93.1333 14.30776375646438
FO-29
1 24278U 96046B   25107.59338943  .00000027  00000-0  60170-4 0  9994
2 24278  98.5812   8.4491 0350798 119.7918 243.8592 13.53244242415601
NOAA-15
1 25338U 98030A   25107.87175659  .00000356  00000-0  16395-3 0  9995
2 25338  98.5404 134.2602 0010982 148.3873 211.7970 14.26944104400887
GO-32
1 25397U 98043D   25107.86462644  .00000217  00000-0  11398-3 0  9990
2 25397  98.9673  85.8945 0001742  39.6769 320.4536 14.24296663391002
ISS
1 25544U 98067A   25107.83977390  .00017122  00000-0  31102-3 0  9994
2 25544  51.6366 245.9368 0005266  50.2056 309.9395 15.49652010505802
NO-44
1 26931U 01043C   25107.83399000  .00000456  00000-0  20196-3 0  9992
2 26931  67.0500 264.2109 0005578 270.7949  89.2513 14.31699032229715
SO-50
1 27607U 02058C   25107.09225053  .00003424  00000-0  44519-3 0  9997
2 27607  64.5562   5.6188 0049945 346.7960  13.1834 14.81435057201300
CO-55
1 27844U 03031E   25107.91017096  .00000684  00000-0  31736-3 0  9991
2 27844  98.6784 116.8602 0009252 348.0942  12.0016 14.23942041131174
CO-57
1 27848U 03031J   25107.90439953  .00000592  00000-0  28051-3 0  9998
2 27848  98.6810 116.8998 0009578   5.4195 354.7085 14.23284356130923
RS-22
1 27939U 03042A   25107.87729007  .00002653  00000-0  42891-3 0  9997
2 27939  98.3240 276.0729 0011789 171.5109 322.8194 14.72170534153070
NOAA-18
1 28654U 05018A   25107.81937252  .00000363  00000-0  21608-3 0  9993
2 28654  98.8427 187.8875 0013057 279.1957  80.7738 14.13577538 26291
CO-58
1 28895U 05043F   25107.86643460  .00003891  00000-0  64469-3 0  9999
2 28895  98.2416 251.5886 0015855 113.5531 246.7342 14.70766417 39421
CO-65
1 32785U 08021C   25107.91748858  .00009796  00000-0  71730-3 0  9993
2 32785  97.7830  78.7291 0011330  40.6415 319.5654 15.03722968921236
AAUSAT2
1 32788U 08021F   25107.91312943  .00276259  00000-0  20409-2 0  9994
2 32788  97.6011 103.7992 0008839 131.5886 228.6136 15.72115981925188
CO-66
1 32791U 08021J   25107.90400349  .00020702  00000-0  10463-2 0  9994
2 32791  97.7257  86.8386 0004450  28.3159 331.8315 15.17085679922580
RS-30
1 32953U 08025A   25107.84910555  .00000050  00000-0  28656-3 0  9994
2 32953  82.4995 259.9716 0020030 158.7580 201.4335 12.43162565766988
NOAA-19
1 33591U 09005A   25107.81723580  .00000346  00000-0  20816-3 0  9997
2 33591  99.0010 172.2171 0014457 149.6172 210.5841 14.13342329834653
SRMSAT
1 37841U 11058D   25106.74383260  .00000592  00000-0  17818-3 0  9999
2 37841  19.9707 120.3269 0011700 191.7437 324.4047 14.11412238697498
ZACUBE-1
1 39417U 13066B   25107.82601416  .00009250  00000-0  81355-3 0  9994
2 39417  97.7762  65.1579 0042929 226.2970 133.4692 14.96034457617028
Delfi-N3xt
1 39428U 13066N   25107.30089708  .00013886  00000-0  14363-2 0  9997
2 39428  97.8355  25.5844 0086227 174.6393 185.5767 14.87445811611157
GOMX-1
1 39430U 13066Q   25107.84883903  .00003999  00000-0  62692-3 0  9991
2 39430  97.6900 329.7370 0133123   1.9078 358.2608 14.67389945607675
LO-74
1 39440U 13066AA  25107.81643457  .00009163  00000-0  93524-3 0  9994
2 39440  97.8462  52.7727 0062775 356.0847   3.9870 14.89379826614788
AO-73
1 39444U 13066AE  25107.84760497  .00011967  00000-0  91645-3 0  9992
2 39444  97.7715  69.6166 0040514 202.9880 156.9532 15.01359045616264
DTUSAT-2
1 40030U 14033W   25107.86655492  .00012954  00000-0  86025-3 0  9993
2 40030  98.0516  77.1844 0007641 231.4598 128.5944 15.07337554588968
EO-80
1 40032U 14033Y   25107.88945226  .00011280  00000-0  74831-3 0  9997
2 40032  98.0407  76.9371 0009019 163.5084 196.6437 15.07405512588959
LILACSAT-2
1 40908U 15049K   25107.85343012  .00018091  00000-0  49385-3 0  9992
2 40908  97.5109 126.9672 0009070   3.2603 356.8699 15.37442508530123
IO-86
1 40931U 15052B   25038.81889873  .00001817  00000-0  15548-3 0  9993
2 40931   6.0001 108.1159 0012838 187.7041 172.2889 14.78568669506492
Horyu-4
1 41340U 16012D   25107.31018733  .00039485  00000-0  11530-2 0  9994
2 41340  30.9953 129.4960 0008758 222.0231 137.9742 15.34060961504595
Lapan A3
1 41603U 16040E   25107.90570002  .00006806  00000-0  24077-3 0  9996
2 41603  97.1392 114.5927 0013210  96.7445 263.5300 15.29383839489739
CAS-2T
1 41847U 16066G   25107.78994194  .00001847  00000-0  27234-3 0  9990
2 41847  98.4213 182.7066 0346160 338.3996  20.2885 14.43337219443401
CAS-4B
1 42759U 17034B   25107.83745378  .00072519  00000-0  99351-3 0  9996
2 42759  43.0091 274.6603 0019978 282.5884  77.2744 15.56235926434360
CAS-4A
1 42761U 17034D   25107.77803233  .00075301  00000-0  99885-3 0  9991
2 42761  43.0126 272.6395 0021351 286.5459  73.3059 15.57051619434371
TechnoSat
1 42829U 17042E   25107.46525033  .00007616  00000-0  59469-3 0  9998
2 42829  97.3929 278.7146 0015462  98.4807 261.8171 15.01292349422757
AO-91
1 43017U 17073E   25107.57768145  .00015728  00000-0  81946-3 0  9995
2 43017  97.5327 339.7008 0175080 347.6895  12.0078 15.03702142401247
S-Net D
1 43186U 18014G   25107.73778331  .00010151  00000-0  60793-3 0  9996
2 43186  97.5662  11.1949 0010769  53.8716 306.3509 15.11150619394391
S-Net B
1 43187U 18014H   25107.27899513  .00012087  00000-0  72336-3 0  9998
2 43187  97.5670  10.7103 0011354  50.5489 309.6744 15.11124158394329
S-Net A
1 43188U 18014J   25107.67213396  .00010120  00000-0  60594-3 0  9991
2 43188  97.5675  11.2425 0011265  50.2511 309.9709 15.11154299394381
S-Net C
1 43189U 18014K   25107.67858856  .00010292  00000-0  61639-3 0  9999
2 43189  97.5688  11.2536 0012581  42.6812 317.5393 15.11126980392939
Ten-Koh
1 43677U 18084G   25107.84544099  .00004769  00000-0  38584-3 0  9993
2 43677  98.0937 278.0034 0009402  97.5170 262.7121 15.00248067352333
PO-101
1 43678U 18084H   25107.89309909  .00005322  00000-0  45540-3 0  9994
2 43678  98.1008 282.0234 0010136 102.8748 257.3606 14.98011144352493
QO-100
1 43700U 18090A   25107.25347416  .00000155  00000-0  00000-0 0  9990
2 43700   0.0147 247.3731 0002134 180.8546 254.5013  1.00275671 23405
MinXSS-2
1 43758U 18099A   25107.76589880  .00023017  00000-0  95705-3 0  9992
2 43758  97.5053 173.6913 0011023 347.8045  12.2923 15.23737535348922
AO-95
1 43770U 18099N   25107.73772696  .00014878  00000-0  77482-3 0  9999
2 43770  97.4961 166.4346 0011580  44.5433 315.6728 15.16048132348544
RANGE-A
1 43773U 18099R   25107.67826017  .00008775  00000-0  56592-3 0  9990
2 43773  97.4535 157.6177 0011696  22.1282 338.0449 15.08472758348242
MOVE-II
1 43780U 18099Y   25107.69031775  .00134718  00000-0  18348-2 0  9992
2 43780  97.4691 180.0752 0002461 259.1793 100.9185 15.57076305349528
SNUSat 2
1 43782U 18099AA  25107.67277299  .00012834  00000-0  71659-3 0  9994
2 43782  97.4649 163.5446 0011207 344.3472  15.7411 15.13608412348490
SnugLite
1 43784U 18099AC  25107.71305740  .00015619  00000-0  80744-3 0  9993
2 43784  97.4459 163.0452 0002795   7.3866 352.7408 15.16350055348623
ITASat 1
1 43786U 18099AE  25107.62211550  .00011274  00000-0  65635-3 0  9995
2 43786  97.4619 163.1552 0015189  35.7938 324.4308 15.12094481348451
EAGLET 1
1 43790U 18099AJ  25107.69395257  .00008156  00000-0  52589-3 0  9993
2 43790  97.4816 163.3461 0012360  18.6924 341.4756 15.08494015348097
ESEO
1 43792U 18099AL  25107.65655853  .00003420  00000-0  26249-3 0  9995
2 43792  97.4546 157.2716 0011332 358.5071   1.6118 15.02371773347872
CSIM
1 43793U 18099AM  25106.76250406  .00164901  00000-0  22431-2 0  9992
2 43793  97.4875 181.2721 0005192 278.2485  81.8181 15.56994881349226
JO-97
1 43803U 18099AX  25107.72790442  .00018312  00000-0  86766-3 0  9996
2 43803  97.4707 167.3146 0006393 338.5035  21.5930 15.19349601348745
Suomi 100
1 43804U 18099AY  25107.72687988  .00015458  00000-0  77961-3 0  9992
2 43804  97.4771 166.7516 0011496 337.7576  22.3157 15.17169412348683
ISAT
1 43879U 18111D   25107.74050905  .00027981  00000-0  10407-2 0  9999
2 43879  97.5984  21.0503 0010724  38.2789 321.9209 15.27425657343603
UWE-4
1 43880U 18111E   25107.72190990  .00023963  00000-0  98842-3 0  9994
2 43880  97.5924  19.8583 0014182  44.3247 315.9123 15.23963517343573
Sparrow
1 43881U 18111F   25107.30427732  .00040811  00000-0  14664-2 0  9996
2 43881  97.6119  23.2866 0009995  72.8507 287.3826 15.28485739345647
Prox-1
1 44339U 19036A   25107.06073626  .00062031  00000-0  81833-2 0  9994
2 44339  23.9974  53.0167 0007311 183.2138 176.8312 14.78620156310089
SONATE
1 44400U 19038Q   25107.60356469  .00133846  00000-0  95370-3 0  9999
2 44400  97.6999 128.2408 0009404  96.9164 263.3169 15.73368777321190
Taurus 1
1 44530U 19059C   25107.87948915  .00012138  00000-0  22735-2 0  9992
2 44530  98.6005 244.8212 0010669 193.7326 166.3586 14.64923523296227
